Content
SEND FEEDBACK

Daily
Averages
Monthly
Summary
Serbia

SURCIN, SERBIA


Home > Europe > Serbia
Elevation: 325 feet     Latitude: 44 49N     Longitude: 020 16E

WEATHER
 
SELECT A DAY
Number of Records: 289,209;   Date Range: 7/1/96 - 10/19/14
 
SHARE

PRINT THIS DATA

[ ← Previous Day ]
WEATHER ALMANAC - JANUARY 23, 2013
[ Next Day → ]
[ °C ]   °F
Weather ElementAverageHighLow
Temperature37.8 °F44.6 °F (2:30 pm)35.6 °F (12:30 am)
Dewpoint36.2 °F39.2 °F (3:30 pm)35.6 °F (12:30 am)
Humidity93.8 %100 % (12:30 am)71 % (2:30 pm)
Barometer29.82 in29.88 in (10:00 am)29.74 in (12:30 am)
Wind Speed5.9 mph10.4 mph (11:00 am)
Weather ElementAverage
Visibility4.3 mi
Wind DirectionS (178.7 °)

Weather ElementTotal
Precipitation---
Heating Degree Days24.9 (Base 65)
Averaged from 54 records on January 23, 2013
WEATHER CONDITIONS BREAKOUT
WIND DIRECTION BREAKOUT
WEATHER BY HOUR - JANUARY 23, 2013
[ °C ]   °F
Local TimeTemperatureDewpointHumidityBarometerVisibilityWind DirectionWind SpeedGust SpeedPrecipitationEventsConditions
12:30 AM35.6 °F35.6 °F100 %29.74 in5.0 miNW (310°)5.8 mphRainLight Rain
1:00 AM36.0 °F36.0 °F98 %29.76 in6.0 miNW (320°)6.7 mphRainLight Rain
1:00 AM35.6 °F35.6 °F100 %29.74 in6.2 miNW (320°)8.1 mphMostly Cloudy
1:30 AM35.6 °F35.6 °F100 %29.74 in6.2 miWNW (300°)6.9 mphMostly Cloudy
2:00 AM35.6 °F35.6 °F100 %29.74 in4.3 miWNW (300°)5.8 mphScattered Clouds
2:30 AM35.6 °F35.6 °F100 %29.74 in4.3 miWNW (290°)4.6 mphScattered Clouds
3:00 AM35.6 °F35.6 °F100 %29.74 in3.7 miWNW (300°)3.5 mphScattered Clouds
3:30 AM35.6 °F35.6 °F100 %29.77 in3.7 miWNW (300°)5.8 mphScattered Clouds
4:00 AM36.0 °F36.0 °F98 %29.80 in3.0 miWest (260°)4.5 mphMist
4:00 AM35.6 °F35.6 °F100 %29.77 in3.1 miWSW (250°)4.6 mphMostly Cloudy
4:30 AM35.6 °F35.6 °F100 %29.77 in3.1 miWest (270°)5.8 mphMostly Cloudy
5:00 AM35.6 °F35.6 °F100 %29.77 in3.1 miWest (260°)5.8 mphMostly Cloudy
5:30 AM35.6 °F35.6 °F100 %29.80 in3.1 miWSW (240°)5.8 mphMostly Cloudy
6:00 AM35.6 °F35.6 °F100 %29.80 in3.1 miWSW (250°)4.6 mphMostly Cloudy
6:30 AM35.6 °F35.6 °F100 %29.80 in3.1 miWSW (250°)3.5 mphScattered Clouds
7:00 AM36.0 °F36.0 °F98 %29.85 in2.0 miSW (230°)4.5 mphRainLight Rain
7:00 AM35.6 °F35.6 °F100 %29.83 in2.5 miSW (220°)5.8 mphRainLight Rain
7:30 AM35.6 °F35.6 °F100 %29.83 in1.9 miSSW (210°)4.6 mphRainLight Rain
8:00 AM35.6 °F35.6 °F100 %29.83 in1.2 miSouth (180°)6.9 mphScattered Clouds
8:30 AM35.6 °F35.6 °F100 %29.83 in3.1 miSouth (170°)6.9 mphScattered Clouds
9:00 AM35.6 °F35.6 °F100 %29.83 in3.7 miSSW (200°)5.8 mph
9:30 AM37.4 °F35.6 °F93 %29.83 in3.7 miSouth (180°)8.1 mph
10:00 AM38.0 °F36.0 °F87 %29.88 in4.0 miSouth (180°)4.5 mphMist
10:00 AM37.4 °F35.6 °F93 %29.86 in4.3 miSouth (180°)5.8 mph
10:30 AM37.4 °F37.4 °F100 %29.86 in4.3 miSouth (180°)6.9 mph
11:00 AM39.2 °F35.6 °F87 %29.86 in5.0 miSouth (190°)10.4 mph
11:30 AM39.2 °F37.4 °F93 %29.86 in5.0 miSouth (180°)9.2 mph
12:00 PM39.2 °F37.4 °F93 %29.83 inSSE (160°)6.9 mphClear
12:30 PM39.2 °F35.6 °F87 %29.83 inSE (140°)5.8 mphClear
1:00 PM42.0 °F37.0 °F78 %29.85 in6.0 miSE (130°)4.5 mphPartly Cloudy
1:00 PM42.8 °F37.4 °F81 %29.83 inSE (130°)6.9 mphClear
1:30 PM42.8 °F37.4 °F81 %29.83 inESE (120°)4.6 mphClear
2:00 PM42.8 °F35.6 °F76 %29.83 inESE (110°)5.8 mphClear
2:30 PM44.6 °F35.6 °F71 %29.83 inEast (90°)6.9 mphClear
3:00 PM42.8 °F37.4 °F81 %29.83 inNE (50°)3.5 mphClear
3:30 PM42.8 °F39.2 °F87 %29.83 inEast (80°)5.8 mphClear
4:00 PM44.0 °F39.0 °F76 %29.85 in6.0 miEast (100°)4.5 mphMostly Cloudy
4:00 PM42.8 °F39.2 °F87 %29.83 inEast (100°)5.8 mphClear
4:30 PM42.8 °F37.4 °F81 %29.83 inESE (110°)8.1 mphClear
5:00 PM39.2 °F35.6 °F87 %29.83 in5.6 miEast (100°)4.6 mph
5:30 PM39.2 °F37.4 °F93 %29.83 in5.6 miEast (90°)5.8 mph
6:00 PM37.4 °F35.6 °F93 %29.83 in5.6 miESE (120°)6.9 mph
6:30 PM37.4 °F35.6 °F93 %29.83 in4.3 miSE (140°)6.9 mph
7:00 PM37.0 °F36.0 °F93 %29.86 in4.0 miSE (140°)6.7 mphMist
7:00 PM37.4 °F35.6 °F93 %29.83 in4.3 miESE (120°)4.6 mph
7:30 PM35.6 °F35.6 °F100 %29.83 in5.0 miSE (140°)6.9 mph
8:00 PM39.2 °F37.4 °F93 %29.83 in5.0 miSSE (150°)5.8 mph
8:30 PM35.6 °F35.6 °F100 %29.83 in5.0 miSE (130°)5.8 mph
9:00 PM35.6 °F35.6 °F100 %29.83 in5.0 miESE (120°)3.5 mph
9:30 PM35.6 °F35.6 °F100 %29.83 in5.0 miEast (100°)4.6 mph
10:00 PM37.4 °F35.6 °F93 %29.83 in5.0 miESE (110°)6.9 mph
10:30 PM35.6 °F35.6 °F100 %29.83 in5.0 miESE (120°)5.8 mph
11:00 PM35.6 °F35.6 °F100 %29.83 in5.0 miESE (120°)6.9 mph
11:30 PM35.6 °F35.6 °F100 %29.83 in5.0 miESE (110°)6.9 mph
Hourly data recorded from LYBE, located miles away from Surcin, Serbia







STORIES FROM OUR PARTNERS